User: anonymous   Login
Location: Unspecified
(0.0000°N, 0.0000°E)
Time: 20:41:11
(UTC+00:00)
Language:

SL-14 Deb - Orbit

View from above orbital plane
View from above orbital plane
View from above satellite
View from above satellite

Ground track
Ground track

The orbit data is extracted from the following two-line orbital elements,

1 26012U 91068X   24051.86821001  .00000093  00000-0  56448-3 0  9995
2 26012  82.7305  94.9451 0038128 166.7624   6.5963 12.46886985108548
Epoch (UTC): 20 February 2024 20:50:13
Eccentricity: 0.0038128
inclination: 82.7305°
perigee height: 1447 km
apogee height: 1507 km
right ascension of ascending node: 94.9451°
argument of perigee: 166.7624°
revolutions per day: 12.46886985
mean anomaly at epoch: 6.5963°
orbit number at epoch: 10854

The dashed part of the orbit path shows where the satellite is in the earth's shadow,  

DLR